AIE668 CYWG-CYQR

Flight info

Callsign AIE668
Flight time 1h 16m
Altitude 26000
Route LIVBI DCT DUKPO DCT FAREN DCT EMLIK DCT KEMKA KEMKA6
Aircraft B350/L-SBGRW/S

Departure

Time 2026-04-17 21:37
Airport Winnipeg / James Armstrong Richardson International Airport (CYWG)

Arrival

Time 2026-04-17 22:53
Airport Regina International Airport (CYQR)
Time Latitude Longitude Altitude Speed Heading
2026-04-17 21:22 49.89377 -97.23305 762 ft 0 kts 54°
2026-04-17 21:30 49.89382 -97.23295 762 ft 3 kts 52°
2026-04-17 21:31 49.89431 -97.23296 763 ft 11 kts 318°
2026-04-17 21:31 49.89509 -97.23322 763 ft 16 kts 71°
2026-04-17 21:31 49.89510 -97.23294 763 ft 0 kts 106°
2026-04-17 21:31 49.89505 -97.23258 763 ft 9 kts 97°
2026-04-17 21:32 49.89497 -97.23145 762 ft 0 kts 94°
2026-04-17 21:32 49.89492 -97.23085 762 ft 11 kts 96°
2026-04-17 21:32 49.89482 -97.22966 761 ft 0 kts 96°
2026-04-17 21:35 49.89482 -97.22957 761 ft 4 kts 96°
2026-04-17 21:35 49.89490 -97.22852 761 ft 7 kts 54°
2026-04-17 21:35 49.89545 -97.22820 761 ft 1 kts 315°
2026-04-17 21:36 49.89561 -97.22844 761 ft 25 kts 316°
2026-04-17 21:36 49.89916 -97.23328 765 ft 101 kts 317°
2026-04-17 21:37 49.90482 -97.24144 1149 ft 111 kts 315°
2026-04-17 21:37 49.90980 -97.24927 1718 ft 102 kts 310°
2026-04-17 21:37 49.91472 -97.25822 2054 ft 112 kts 313°
2026-04-17 21:37 49.92144 -97.26435 2556 ft 107 kts 324°
2026-04-17 21:38 49.92706 -97.27108 2973 ft 108 kts 313°
2026-04-17 21:38 49.93185 -97.28074 3338 ft 111 kts 304°
2026-04-17 21:38 49.93585 -97.29005 3851 ft 104 kts 302°
2026-04-17 21:38 49.94115 -97.29935 3997 ft 127 kts 315°
2026-04-17 21:39 49.94841 -97.30890 4114 ft 146 kts 317°
2026-04-17 21:39 49.95643 -97.31937 4331 ft 156 kts 316°
2026-04-17 21:39 49.96505 -97.33058 4706 ft 162 kts 316°
2026-04-17 21:39 49.97368 -97.34151 5171 ft 162 kts 316°
2026-04-17 21:40 49.98239 -97.35221 5641 ft 160 kts 316°
2026-04-17 21:40 49.99130 -97.36283 6091 ft 161 kts 316°
2026-04-17 21:40 49.99980 -97.37270 6514 ft 161 kts 316°
2026-04-17 21:40 50.00885 -97.38284 6933 ft 161 kts 316°
2026-04-17 21:41 50.01810 -97.39312 7295 ft 165 kts 317°
2026-04-17 21:41 50.02755 -97.40354 7657 ft 167 kts 317°
2026-04-17 21:41 50.03728 -97.41411 8016 ft 170 kts 317°
2026-04-17 21:41 50.04714 -97.42483 8376 ft 171 kts 316°
2026-04-17 21:42 50.05700 -97.43553 8698 ft 175 kts 317°
2026-04-17 21:42 50.06729 -97.44679 9054 ft 175 kts 316°
2026-04-17 21:42 50.07668 -97.45850 9361 ft 169 kts 297°
2026-04-17 21:42 50.07864 -97.47527 9627 ft 158 kts 251°
2026-04-17 21:43 50.07139 -97.48782 9902 ft 162 kts 216°
2026-04-17 21:43 50.06281 -97.49917 10226 ft 159 kts 229°
2026-04-17 21:43 50.05537 -97.51199 10540 ft 159 kts 230°
2026-04-17 21:43 50.04812 -97.52496 10877 ft 157 kts 230°
2026-04-17 21:44 50.04108 -97.53776 11220 ft 155 kts 231°
2026-04-17 21:44 50.03406 -97.55061 11526 ft 154 kts 230°
2026-04-17 21:44 50.02701 -97.56355 11826 ft 154 kts 230°
2026-04-17 21:44 50.02014 -97.57616 12097 ft 153 kts 230°
2026-04-17 21:45 50.01326 -97.58882 12397 ft 152 kts 229°
2026-04-17 21:45 50.00640 -97.60140 12665 ft 151 kts 229°
2026-04-17 21:45 49.99967 -97.61375 12954 ft 149 kts 229°
2026-04-17 21:45 49.99291 -97.62616 13202 ft 149 kts 228°
2026-04-17 21:46 49.98611 -97.63860 13451 ft 152 kts 229°
2026-04-17 21:46 49.97921 -97.65124 13830 ft 152 kts 228°
2026-04-17 21:46 49.97247 -97.66357 14281 ft 148 kts 227°
2026-04-17 21:46 49.96587 -97.67565 14706 ft 144 kts 226°
2026-04-17 21:47 49.95946 -97.68739 15123 ft 140 kts 226°
2026-04-17 21:47 49.95320 -97.69883 15499 ft 138 kts 225°
2026-04-17 21:47 49.94710 -97.70998 15863 ft 136 kts 226°
2026-04-17 21:47 49.94104 -97.72107 16198 ft 135 kts 226°
2026-04-17 21:48 49.93504 -97.73203 16543 ft 133 kts 225°
2026-04-17 21:48 49.92911 -97.74286 16874 ft 132 kts 225°
2026-04-17 21:48 49.92328 -97.75356 17209 ft 130 kts 227°
2026-04-17 21:48 49.92133 -97.76789 17505 ft 149 kts 255°
2026-04-17 21:49 49.92260 -97.78412 17763 ft 154 kts 260°
2026-04-17 21:49 49.92435 -97.80044 18052 ft 154 kts 259°
2026-04-17 21:49 49.92625 -97.81655 18328 ft 153 kts 260°
2026-04-17 21:49 49.92825 -97.83298 18583 ft 154 kts 260°
2026-04-17 21:50 49.93027 -97.84919 18842 ft 153 kts 259°
2026-04-17 21:50 49.93229 -97.86550 19064 ft 155 kts 260°
2026-04-17 21:50 49.93434 -97.88187 19291 ft 156 kts 259°
2026-04-17 21:50 49.93641 -97.89829 19539 ft 155 kts 259°
2026-04-17 21:51 49.93846 -97.91465 19802 ft 154 kts 259°
2026-04-17 21:51 49.94049 -97.93096 20027 ft 154 kts 259°
2026-04-17 21:51 49.94253 -97.94732 20243 ft 155 kts 258°
2026-04-17 21:51 49.94455 -97.96348 20468 ft 154 kts 259°
2026-04-17 21:52 49.94659 -97.97984 20690 ft 153 kts 258°
2026-04-17 21:52 49.94860 -97.99596 20926 ft 152 kts 258°
2026-04-17 21:52 49.95061 -98.01223 21127 ft 152 kts 258°
2026-04-17 21:52 49.95262 -98.02848 21343 ft 152 kts 257°
2026-04-17 21:53 49.95461 -98.04463 21510 ft 154 kts 258°
2026-04-17 21:53 49.95663 -98.06104 21691 ft 155 kts 258°
2026-04-17 21:53 49.95867 -98.07752 21880 ft 155 kts 258°
2026-04-17 21:53 49.96069 -98.09386 22060 ft 155 kts 258°
2026-04-17 21:54 49.96271 -98.11032 22268 ft 156 kts 258°
2026-04-17 21:54 49.96478 -98.12712 22536 ft 157 kts 258°
2026-04-17 21:54 49.96682 -98.14366 22809 ft 157 kts 257°
2026-04-17 21:54 49.96883 -98.16005 23071 ft 156 kts 258°
2026-04-17 21:55 49.97085 -98.17645 23351 ft 154 kts 257°
2026-04-17 21:55 49.97288 -98.19312 23570 ft 156 kts 257°
2026-04-17 21:55 49.97490 -98.20963 23812 ft 156 kts 257°
2026-04-17 21:55 49.97692 -98.22617 24034 ft 156 kts 256°
2026-04-17 21:56 49.97896 -98.24280 24260 ft 155 kts 256°
2026-04-17 21:56 49.98097 -98.25934 24444 ft 156 kts 256°
2026-04-17 21:56 49.98297 -98.27572 24652 ft 155 kts 257°
2026-04-17 21:56 49.98497 -98.29221 24831 ft 156 kts 256°
2026-04-17 21:57 49.98698 -98.30873 25015 ft 155 kts 257°
2026-04-17 21:57 49.98899 -98.32531 25193 ft 155 kts 257°
2026-04-17 21:57 49.99100 -98.34194 25357 ft 156 kts 257°
2026-04-17 21:57 49.99300 -98.35846 25535 ft 157 kts 257°
2026-04-17 21:58 49.99500 -98.37509 25751 ft 157 kts 257°
2026-04-17 21:58 49.99701 -98.39175 25940 ft 158 kts 257°
2026-04-17 21:58 49.99904 -98.40901 26011 ft 167 kts 258°
2026-04-17 21:58 50.00123 -98.42757 26018 ft 179 kts 259°
2026-04-17 21:59 50.00366 -98.44792 26026 ft 191 kts 261°
2026-04-17 21:59 50.00624 -98.46932 26032 ft 201 kts 262°
2026-04-17 21:59 50.00892 -98.49159 26025 ft 211 kts 262°
2026-04-17 21:59 50.01176 -98.51533 26022 ft 221 kts 263°
2026-04-17 22:00 50.01469 -98.53970 26023 ft 229 kts 264°
2026-04-17 22:00 50.01766 -98.56445 26016 ft 236 kts 264°
2026-04-17 22:00 50.02068 -98.58974 26017 ft 243 kts 264°
2026-04-17 22:00 50.02381 -98.61595 26016 ft 249 kts 265°
2026-04-17 22:01 50.02696 -98.64236 26013 ft 254 kts 266°
2026-04-17 22:01 50.03020 -98.66979 26021 ft 259 kts 265°
2026-04-17 22:01 50.03346 -98.69752 26020 ft 263 kts 265°
2026-04-17 22:01 50.03677 -98.72562 26018 ft 267 kts 266°
2026-04-17 22:02 50.04018 -98.75469 26018 ft 271 kts 266°
2026-04-17 22:02 50.04354 -98.78329 26021 ft 274 kts 266°
2026-04-17 22:02 50.04700 -98.81292 26025 ft 277 kts 266°
2026-04-17 22:02 50.05042 -98.84217 26019 ft 279 kts 266°
2026-04-17 22:03 50.05391 -98.87206 26029 ft 281 kts 267°
2026-04-17 22:03 50.05741 -98.90221 26017 ft 283 kts 267°
2026-04-17 22:03 50.06090 -98.93239 26025 ft 284 kts 267°
2026-04-17 22:03 50.06438 -98.96236 26020 ft 285 kts 267°
2026-04-17 22:04 50.06787 -98.99268 26018 ft 285 kts 267°
2026-04-17 22:04 50.07137 -99.02304 26024 ft 286 kts 268°
2026-04-17 22:04 50.07727 -99.05357 26023 ft 290 kts 271°
2026-04-17 22:04 50.07984 -99.08365 26048 ft 282 kts 264°
2026-04-17 22:05 50.08250 -99.11416 26024 ft 285 kts 266°
2026-04-17 22:05 50.08561 -99.14490 25885 ft 292 kts 268°
2026-04-17 22:05 50.08894 -99.17562 25886 ft 292 kts 269°
2026-04-17 22:05 50.09250 -99.20770 25871 ft 293 kts 269°
2026-04-17 22:06 50.09603 -99.23909 25855 ft 293 kts 269°
2026-04-17 22:06 50.09956 -99.27042 25863 ft 292 kts 269°
2026-04-17 22:06 50.10306 -99.30154 25843 ft 292 kts 269°
2026-04-17 22:06 50.10659 -99.33294 25843 ft 291 kts 269°
2026-04-17 22:07 50.11005 -99.36384 25845 ft 291 kts 270°
2026-04-17 22:07 50.11351 -99.39484 25853 ft 290 kts 270°
2026-04-17 22:07 50.11697 -99.42586 25855 ft 290 kts 270°
2026-04-17 22:07 50.12037 -99.45644 25849 ft 290 kts 270°
2026-04-17 22:08 50.12380 -99.48726 25852 ft 290 kts 270°
2026-04-17 22:08 50.12721 -99.51818 25861 ft 290 kts 271°
2026-04-17 22:08 50.13066 -99.54935 25848 ft 290 kts 271°
2026-04-17 22:08 50.13408 -99.58043 25840 ft 290 kts 271°
2026-04-17 22:09 50.13745 -99.61108 25838 ft 290 kts 271°
2026-04-17 22:09 50.14084 -99.64211 25834 ft 290 kts 271°
2026-04-17 22:09 50.14426 -99.67335 25862 ft 290 kts 271°
2026-04-17 22:09 50.14761 -99.70419 25853 ft 291 kts 271°
2026-04-17 22:10 50.15102 -99.73556 25844 ft 292 kts 271°
2026-04-17 22:10 50.15439 -99.76653 25840 ft 292 kts 271°
2026-04-17 22:10 50.15774 -99.79762 25846 ft 292 kts 271°
2026-04-17 22:10 50.16116 -99.82922 25846 ft 293 kts 271°
2026-04-17 22:11 50.16454 -99.86067 25841 ft 293 kts 271°
2026-04-17 22:11 50.16945 -99.89163 25826 ft 300 kts 281°
2026-04-17 22:11 50.17271 -99.92297 25839 ft 287 kts 265°
2026-04-17 22:11 50.17389 -99.95375 25836 ft 290 kts 268°
2026-04-17 22:12 50.17586 -99.98502 25841 ft 291 kts 269°
2026-04-17 22:12 50.17821 -100.01678 25847 ft 292 kts 270°
2026-04-17 22:12 50.18069 -100.04822 25846 ft 293 kts 271°
2026-04-17 22:12 50.18322 -100.07944 25839 ft 293 kts 271°
2026-04-17 22:13 50.18581 -100.11105 25831 ft 294 kts 271°
2026-04-17 22:13 50.18841 -100.14286 25844 ft 294 kts 272°
2026-04-17 22:13 50.19098 -100.17422 25845 ft 294 kts 272°
2026-04-17 22:13 50.19358 -100.20602 25841 ft 294 kts 272°
2026-04-17 22:14 50.19616 -100.23769 25833 ft 294 kts 272°
2026-04-17 22:14 50.19871 -100.26903 25844 ft 294 kts 272°
2026-04-17 22:14 50.20130 -100.30102 25843 ft 294 kts 272°
2026-04-17 22:14 50.20384 -100.33263 25842 ft 294 kts 273°
2026-04-17 22:15 50.20635 -100.36385 25845 ft 294 kts 273°
2026-04-17 22:15 50.20889 -100.39547 25854 ft 293 kts 273°
2026-04-17 22:15 50.21142 -100.42722 25849 ft 293 kts 273°
2026-04-17 22:15 50.21390 -100.45852 25852 ft 293 kts 274°
2026-04-17 22:16 50.21639 -100.48988 25857 ft 293 kts 274°
2026-04-17 22:16 50.21888 -100.52146 25863 ft 293 kts 274°
2026-04-17 22:16 50.22136 -100.55303 25868 ft 293 kts 275°
2026-04-17 22:16 50.22384 -100.58453 25870 ft 293 kts 275°
2026-04-17 22:17 50.22631 -100.61623 25872 ft 294 kts 275°
2026-04-17 22:17 50.22875 -100.64754 25872 ft 294 kts 275°
2026-04-17 22:17 50.23122 -100.67944 25873 ft 294 kts 274°
2026-04-17 22:17 50.23369 -100.71136 25872 ft 295 kts 275°
2026-04-17 22:18 50.23613 -100.74310 25883 ft 295 kts 275°
2026-04-17 22:18 50.23857 -100.77492 25888 ft 296 kts 275°
2026-04-17 22:18 50.24098 -100.80637 25889 ft 296 kts 275°
2026-04-17 22:18 50.24342 -100.83839 25881 ft 297 kts 275°
2026-04-17 22:19 50.24585 -100.87051 25891 ft 297 kts 275°
2026-04-17 22:19 50.24826 -100.90238 25899 ft 298 kts 275°
2026-04-17 22:19 50.25069 -100.93461 25897 ft 298 kts 275°
2026-04-17 22:19 50.25312 -100.96693 25903 ft 299 kts 276°
2026-04-17 22:20 50.25554 -100.99934 25912 ft 300 kts 276°
2026-04-17 22:20 50.25795 -101.03176 25909 ft 300 kts 276°
2026-04-17 22:20 50.26032 -101.06370 25911 ft 300 kts 276°
2026-04-17 22:20 50.26272 -101.09618 25915 ft 301 kts 276°
2026-04-17 22:21 50.26514 -101.12902 25915 ft 301 kts 277°
2026-04-17 22:21 50.26751 -101.16125 25910 ft 302 kts 277°
2026-04-17 22:21 50.26989 -101.19401 25917 ft 302 kts 277°
2026-04-17 22:21 50.27225 -101.22641 25910 ft 303 kts 277°
2026-04-17 22:22 50.27464 -101.25948 25915 ft 304 kts 277°
2026-04-17 22:22 50.27702 -101.29240 25891 ft 304 kts 277°
2026-04-17 22:22 50.27939 -101.32530 25887 ft 304 kts 277°
2026-04-17 22:22 50.28171 -101.35772 25901 ft 304 kts 277°
2026-04-17 22:23 50.28405 -101.39050 25899 ft 304 kts 278°
2026-04-17 22:23 50.28639 -101.42350 25907 ft 304 kts 278°
2026-04-17 22:23 50.28873 -101.45661 25896 ft 304 kts 278°
2026-04-17 22:23 50.29102 -101.48912 25893 ft 304 kts 278°
2026-04-17 22:24 50.29332 -101.52191 25907 ft 304 kts 278°
2026-04-17 22:24 50.29562 -101.55485 25909 ft 304 kts 278°
2026-04-17 22:24 50.29790 -101.58765 25896 ft 305 kts 278°
2026-04-17 22:24 50.30019 -101.62073 25897 ft 304 kts 279°
2026-04-17 22:25 50.30245 -101.65341 25894 ft 305 kts 278°
2026-04-17 22:25 50.30473 -101.68653 25905 ft 305 kts 278°
2026-04-17 22:25 50.30699 -101.71959 25914 ft 305 kts 278°
2026-04-17 22:25 50.30926 -101.75294 25909 ft 306 kts 278°
2026-04-17 22:26 50.31148 -101.78567 25908 ft 306 kts 278°
2026-04-17 22:26 50.31374 -101.81912 25901 ft 307 kts 278°
2026-04-17 22:26 50.31595 -101.85198 25901 ft 307 kts 279°
2026-04-17 22:26 50.31816 -101.88510 25904 ft 307 kts 279°
2026-04-17 22:27 50.32039 -101.91848 25899 ft 307 kts 279°
2026-04-17 22:27 50.32259 -101.95160 25898 ft 307 kts 279°
2026-04-17 22:27 50.32480 -101.98506 25895 ft 308 kts 279°
2026-04-17 22:27 50.32697 -102.01804 25903 ft 307 kts 279°
2026-04-17 22:28 50.32917 -102.05164 25906 ft 308 kts 279°
2026-04-17 22:28 50.33131 -102.08452 25904 ft 308 kts 279°
2026-04-17 22:28 50.33347 -102.11778 25900 ft 307 kts 279°
2026-04-17 22:28 50.33563 -102.15110 25911 ft 308 kts 279°
2026-04-17 22:29 50.33778 -102.18453 25906 ft 308 kts 280°
2026-04-17 22:29 50.33993 -102.21809 25908 ft 308 kts 280°
2026-04-17 22:29 50.34205 -102.25140 25906 ft 308 kts 279°
2026-04-17 22:29 50.34416 -102.28466 25921 ft 308 kts 280°
2026-04-17 22:30 50.34625 -102.31771 25916 ft 308 kts 280°
2026-04-17 22:30 50.34837 -102.35135 25917 ft 309 kts 280°
2026-04-17 22:30 50.35045 -102.38471 25916 ft 308 kts 280°
2026-04-17 22:30 50.35253 -102.41807 25920 ft 309 kts 280°
2026-04-17 22:31 50.35462 -102.45177 25915 ft 309 kts 280°
2026-04-17 22:31 50.35667 -102.48498 25906 ft 302 kts 280°
2026-04-17 22:31 50.36036 -102.51647 25906 ft 289 kts 289°
2026-04-17 22:31 50.36218 -102.54739 25909 ft 287 kts 276°
2026-04-17 22:32 50.36279 -102.57854 25910 ft 280 kts 278°
2026-04-17 22:32 50.36394 -102.60883 25916 ft 274 kts 279°
2026-04-17 22:32 50.36529 -102.63797 25925 ft 269 kts 280°
2026-04-17 22:32 50.36677 -102.66744 25875 ft 268 kts 279°
2026-04-17 22:33 50.36832 -102.69706 25566 ft 279 kts 280°
2026-04-17 22:33 50.36993 -102.72774 25284 ft 286 kts 280°
2026-04-17 22:33 50.37158 -102.75900 24985 ft 292 kts 280°
2026-04-17 22:33 50.37327 -102.79124 24640 ft 297 kts 281°
2026-04-17 22:34 50.37494 -102.82320 24277 ft 301 kts 281°
2026-04-17 22:34 50.37666 -102.85618 23889 ft 302 kts 281°
2026-04-17 22:34 50.37837 -102.88915 23514 ft 305 kts 281°
2026-04-17 22:34 50.38008 -102.92245 23130 ft 307 kts 281°
2026-04-17 22:35 50.38179 -102.95588 22748 ft 309 kts 281°
2026-04-17 22:35 50.38349 -102.98912 22363 ft 310 kts 281°
2026-04-17 22:35 50.38519 -103.02271 21976 ft 311 kts 281°
2026-04-17 22:35 50.38688 -103.05638 21589 ft 311 kts 280°
2026-04-17 22:36 50.38857 -103.09008 21202 ft 311 kts 281°
2026-04-17 22:36 50.39024 -103.12382 20813 ft 311 kts 281°
2026-04-17 22:36 50.39193 -103.15782 20415 ft 310 kts 281°
2026-04-17 22:36 50.39357 -103.19125 20014 ft 307 kts 281°
2026-04-17 22:37 50.39517 -103.22404 19616 ft 303 kts 281°
2026-04-17 22:37 50.39679 -103.25726 19208 ft 300 kts 281°
2026-04-17 22:37 50.39834 -103.28928 18811 ft 297 kts 281°
2026-04-17 22:37 50.39988 -103.32140 18419 ft 295 kts 281°
2026-04-17 22:38 50.40144 -103.35409 18015 ft 293 kts 281°
2026-04-17 22:38 50.40295 -103.38570 17621 ft 291 kts 281°
2026-04-17 22:38 50.40444 -103.41734 17224 ft 290 kts 281°
2026-04-17 22:38 50.40592 -103.44880 16824 ft 289 kts 281°
2026-04-17 22:39 50.40739 -103.48041 16427 ft 288 kts 281°
2026-04-17 22:39 50.40884 -103.51152 16034 ft 287 kts 281°
2026-04-17 22:39 50.41171 -103.57400 15245 ft 285 kts 281°
2026-04-17 22:40 50.41312 -103.60474 14816 ft 282 kts 282°
2026-04-17 22:40 50.41450 -103.63532 14427 ft 278 kts 282°
2026-04-17 22:40 50.41587 -103.66562 14011 ft 277 kts 281°
2026-04-17 22:40 50.41719 -103.69533 13636 ft 275 kts 281°
2026-04-17 22:41 50.41855 -103.72555 13237 ft 273 kts 280°
2026-04-17 22:41 50.41987 -103.75527 12811 ft 273 kts 281°
2026-04-17 22:41 50.42117 -103.78489 12433 ft 272 kts 281°
2026-04-17 22:41 50.42251 -103.81558 12020 ft 271 kts 281°
2026-04-17 22:42 50.42379 -103.84510 11619 ft 270 kts 281°
2026-04-17 22:42 50.42505 -103.87415 11228 ft 270 kts 280°
2026-04-17 22:42 50.42343 -103.90380 10769 ft 282 kts 261°
2026-04-17 22:42 50.41729 -103.93177 10359 ft 265 kts 259°
2026-04-17 22:43 50.41131 -103.95901 9955 ft 263 kts 259°
2026-04-17 22:43 50.40543 -103.98595 9553 ft 262 kts 259°
2026-04-17 22:43 50.39952 -104.01298 9150 ft 261 kts 259°
2026-04-17 22:43 50.39366 -104.03975 8748 ft 259 kts 259°
2026-04-17 22:44 50.38789 -104.06606 8354 ft 258 kts 259°
2026-04-17 22:44 50.38206 -104.09263 7953 ft 257 kts 259°
2026-04-17 22:44 50.37626 -104.11914 7551 ft 255 kts 259°
2026-04-17 22:44 50.37066 -104.14548 7152 ft 254 kts 259°
2026-04-17 22:45 50.36505 -104.17199 6748 ft 253 kts 259°
2026-04-17 22:45 50.35957 -104.19786 6351 ft 252 kts 258°
2026-04-17 22:45 50.35405 -104.22382 6158 ft 243 kts 259°
2026-04-17 22:45 50.34886 -104.24819 6131 ft 231 kts 259°
2026-04-17 22:46 50.34381 -104.27193 6054 ft 224 kts 259°
2026-04-17 22:46 50.33885 -104.29539 5642 ft 231 kts 259°
2026-04-17 22:46 50.33374 -104.31937 5256 ft 234 kts 259°
2026-04-17 22:46 50.32859 -104.34354 4866 ft 236 kts 259°
2026-04-17 22:47 50.32336 -104.36802 4462 ft 236 kts 258°
2026-04-17 22:47 50.31823 -104.39202 4183 ft 232 kts 258°
2026-04-17 22:47 50.31324 -104.41521 4147 ft 220 kts 258°
2026-04-17 22:47 50.30846 -104.43752 4137 ft 205 kts 259°
2026-04-17 22:48 50.30424 -104.45710 4132 ft 175 kts 261°
2026-04-17 22:48 50.30448 -104.47312 4128 ft 131 kts 304°
2026-04-17 22:48 50.30973 -104.48255 4128 ft 109 kts 310°
2026-04-17 22:48 50.31422 -104.49280 4174 ft 116 kts 313°
2026-04-17 22:49 50.31953 -104.50207 4163 ft 111 kts 317°
2026-04-17 22:49 50.32496 -104.51036 4164 ft 110 kts 319°
2026-04-17 22:49 50.33062 -104.51857 4168 ft 111 kts 320°
2026-04-17 22:49 50.33644 -104.52662 4193 ft 109 kts 322°
2026-04-17 22:50 50.34226 -104.53414 4154 ft 113 kts 315°
2026-04-17 22:50 50.34718 -104.54378 4156 ft 114 kts 315°
2026-04-17 22:50 50.35328 -104.55178 4173 ft 113 kts 322°
2026-04-17 22:50 50.35999 -104.55978 4128 ft 131 kts 324°
2026-04-17 22:51 50.36704 -104.56963 3759 ft 142 kts 315°
2026-04-17 22:51 50.37433 -104.57937 3381 ft 128 kts 323°
2026-04-17 22:51 50.38075 -104.58783 3249 ft 115 kts 317°
2026-04-17 22:51 50.38655 -104.59654 3048 ft 120 kts 320°
2026-04-17 22:52 50.39288 -104.60500 2899 ft 118 kts 319°
2026-04-17 22:52 50.39892 -104.61386 2735 ft 120 kts 316°
2026-04-17 22:52 50.40513 -104.62264 2501 ft 115 kts 321°
2026-04-17 22:52 50.41102 -104.63067 2316 ft 104 kts 317°
2026-04-17 22:53 50.41627 -104.63855 2155 ft 105 kts 319°
2026-04-17 22:53 50.42177 -104.64628 1974 ft 101 kts 318°
2026-04-17 22:53 50.42670 -104.65329 1890 ft 84 kts 317°
2026-04-17 22:53 50.42904 -104.65655 1890 ft 16 kts 322°
2026-04-17 22:54 50.43024 -104.65643 1890 ft 12 kts 27°
2026-04-17 22:54 50.43055 -104.65617 1889 ft 4 kts 28°
2026-04-17 22:54 50.43110 -104.65593 1889 ft 12 kts 338°
2026-04-17 22:54 50.43192 -104.65700 1889 ft 17 kts 319°
2026-04-17 22:55 50.43290 -104.65840 1889 ft 18 kts 318°
2026-04-17 22:55 50.43382 -104.65969 1889 ft 14 kts 315°
2026-04-17 22:55 50.43419 -104.66019 1889 ft 3 kts 322°
2026-04-17 22:55 50.43458 -104.66071 1888 ft 10 kts 317°
2026-04-17 22:56 50.43531 -104.66175 1888 ft 16 kts 317°
2026-04-17 22:56 50.43630 -104.66225 1888 ft 17 kts 49°
2026-04-17 22:56 50.43700 -104.66103 1887 ft 17 kts 49°
2026-04-17 22:56 50.43764 -104.65990 1886 ft 9 kts 52°
2026-04-17 22:57 50.43769 -104.65844 1885 ft 18 kts 90°
2026-04-17 22:57 50.43768 -104.65602 1883 ft 19 kts 88°
2026-04-17 22:57 50.43768 -104.65459 1882 ft 14 kts 95°
2026-04-17 22:57 50.43805 -104.65382 1882 ft 13 kts 320°
2026-04-17 22:58 50.43853 -104.65498 1882 ft 13 kts 267°
2026-04-17 22:58 50.43849 -104.65539 1882 ft 0 kts 263°
2026-04-17 22:58 50.43836 -104.65572 1882 ft 8 kts 194°
2026-04-17 22:58 50.43809 -104.65543 1882 ft 2 kts 46°
2026-04-17 22:59 50.43824 -104.65547 1882 ft 2 kts
2026-04-17 22:59 50.43827 -104.65547 1882 ft 0 kts 358°